カタログに戻る

THORAD AGENA D DEB

運用中SSO
NORAD 4778·DEBRIS·🇺🇸 United States

打ち上げ Apr 8, 1970 から Vandenberg Space Force Base

Loading…

次のパス (今後24時間)

TLE

最新Source: Space-Track

元期: Sep 14, 2026, 15:28 UTC

1 04778U 70025DY  26257.64494267  .00000128  00000-0  24896-3 0  9997
2 04778  99.9564 322.8639 0035424 196.7363 316.5509 13.55696903783549

AllMySatでTHORAD AGENA D DEBをリアルタイム追跡

Download on the App Store